Dr. Bill's Marine Weather

Coastal Marine Forecast

       Alabama   Florida   Louisiana   Mississippi

Printer Friendly AL  FL  LA  MS

Data Buoys:   Western Gulf of Mexico    Eastern Gulf of Mexico
**********************************************************************
  Alabama
900 PM CST SUN MAR 01 2015

ALZ051>064-020400-
SOUTHWEST ALABAMA
  
CITY           SKY/WX    TMP DP  RH WIND       PRES   REMARKS
MOBILE         CLOUDY    56  56 100 E8        30.35R FOG              
BROOKLEY FIELD CLOUDY    56  55  97 NE6       30.36R FOG              
EVERGREEN      RAIN      54  53  97 S3        30.38R FOG              
**********************************************************************
  Florida
1000 PM EST SUN MAR 01 2015

FLZ001>010-012>015-112-114-115-020400-
PANHANDLE FLORIDA
  
CITY           SKY/WX    TMP DP  RH WIND       PRES   REMARKS
PENSACOLA      CLOUDY    56  54  93 NE7       30.35R FOG              
PENSACOLA NAS  FOG       57  55  93 NE8       30.34R VSB 1            
MILTON NAS     CLOUDY    54  53  97 E9        30.36R FOG              
CRESTVIEW      FOG       53  53 100 NE6       30.39R VSB 1            
DUKE FIELD     FOG       54  52  94 NE6       30.36R VSB 1            
VALPARAISO     CLOUDY    55  53  95 NE6       30.36R FOG              
TRI COUNTY     CLOUDY    52  51  97 NE5       30.40R                  
PANAMA CITY    CLOUDY    57  53  86 NE8       30.36R                  
TYNDALL AFB    CLOUDY    59  57  94 NE5       30.36R FOG              
APALACHICOLA   CLOUDY    63  59  87 NE6       30.35S FOG              

STATION/POSITION SKY/WX   TEMP    WIND        PRES    WAVE   SWELL
                          AIR SEA DIR/SP/G            HT/PER HT/PER
                          (F)     (DEG/KT/KT) (MB)    (FT/S) (FT/S)
30.1N   87.6W              61 63   80/ 16/ 17 1026.2R   3/ 6
29.2N   88.2W              70 71  120/ 14/ 16 1026.0R   4/ 7   3/ 7
28.7N   86.0W              66 68   80/ 12/ 14 1026.8R   3/ 5   2/ 8
PANAMA CITY BEAC           57 58   40/  7/ 11 1027.9R
CAPE SAN BLAS    NOT AVBL
TOWER C                    59      60/ 10/ 10 1027.4S
28.5N   84.5W              64 66   30/  8/  8 1027.2R   1/ 4   2/ 4

**********************************************************************
  Louisiana
900 PM CST SUN MAR 01 2015

LAZ040-048-061>063-065-066-069-020400-
SOUTHEAST LOUISIANA
  
CITY           SKY/WX    TMP DP  RH WIND       PRES   REMARKS
N.O. AUDUBON     N/A     58  58 100 MISG        N/A                   
N.O. INTL ARPT CLOUDY    58  56  93 E9        30.29R FOG              
N.O. LAKEFRONT FOG       58  55  90 E10       30.31R VSB 3/4          
SLIDELL        FOG       61  60  97 E5        30.31R VSB 1            
BATON ROUGE    TSTM      63  62  97 NE8       30.29R FOG              
BOOTHVILLE     FOG       62  62 100 E7        30.29R VSB 1/4          
BELLE CHASSE   FOG       59  57  93 NE5       30.28R VSB 1/2          
BOGALUSA*      RAIN      62  59  89 NE9       30.35R                  
GALLIANO*      CLOUDY    64  62  94 CALM      30.28R FOG              
NEW ROADS*     RAIN      64  63  97 E6        30.29R                  
GONZALES*      CLOUDY    58  58 100 NE8       30.24F                  
HAMMOND*       HVY RAIN  63  61  94 E7        30.31R                  
HOUMA*         CLOUDY    66  64  93 NE7       30.28R FOG              
PORT FOURCHON* CLOUDY    66  66 100 E10       30.30R FOG              

**********************************************************************
  Mississippi
900 PM CST SUN MAR 01 2015

MSZ080>082-020400-
COASTAL MISSISSIPPI
  
CITY           SKY/WX    TMP DP  RH WIND       PRES   REMARKS
BILOXI         CLOUDY    59  59 100 E9        30.31R FOG              
PASCAGOULA     CLOUDY    58  57  97 E6        30.33R FOG              
GULFPORT       CLOUDY    60  59  96 E10       30.31R FOG              
About Us | Coastal Marine Forecast | Offshore Marine Forecast
Gulf Coast Tides | Hourly Weather Observations | Weather Radar
Sea Surface Temperatures | Solar/Lunar Data | Hurricane Advisories | Home
     
USA Logo Dr. Bill's Marine Weather
Last date changed: December 9, 2014 4:08 PM
www.gulfmarineweather.com/hourlyweatherobservations.shtml
Contact Us